Location: Unspecified
(29.0040°N, 0.0000°E)
Time: 04:25:15
(UTC+00:00)

ISS - Pass Details

Date: 19 January 2021
Orbit: 417 x 422 km, 51.6° (Epoch: 03 March)

Event Time Altitude Azimuth Distance (km) Brightness Sun altitude
Rises 18:20:35 0° 250° (WSW) 2,357 2.2 -11.6°
Reaches altitude 10° 18:22:59 10° 266° (W) 1,497 0.4 -12.1°
Maximum altitude 18:25:41 22° 320° (NW) 968 -1.7 -12.7°
Drops below altitude 10° 18:28:25 10° 14° (NNE) 1,504 -1.2 -13.3°
Enters shadow 18:28:41 - 16° (NNE) 1,596 -1.1 -13.3°
